Time,TemperatureF,DewpointF,PressureIn,WindDirection,WindDirectionDegrees,WindSpeedMPH,WindSpeedGustMPH,Humidity,HourlyPrecipIn,Conditions,Clouds,dailyrainin,SolarRadiationWatts/m^2,SoftwareType,DateUTC
2013-08-19 00:03:00,65.0,64.0,-100.00,ESE,117,0.0,2.0,98,0.03,,,0.31,0.000000,,2013-08-19 04:03:00,
2013-08-19 00:43:00,65.0,64.0,-100.00,WSW,249,3.0,4.0,98,0.01,,,0.31,0.000000,,2013-08-19 04:43:00,
2013-08-19 00:53:00,65.0,64.0,-100.00,WSW,249,3.0,4.0,98,0.01,,,0.31,0.000000,,2013-08-19 04:53:00,
2013-08-19 01:02:00,65.0,64.0,-100.00,WSW,249,3.0,4.0,98,0.01,,,0.31,0.000000,,2013-08-19 05:02:00,
2013-08-19 01:42:00,65.0,64.0,-100.00,SSW,208,2.0,5.0,98,0.07,,,0.21,0.000000,,2013-08-19 05:42:00,
2013-08-19 01:52:00,65.0,64.0,-100.00,SSW,208,2.0,5.0,98,0.07,,,0.21,0.000000,,2013-08-19 05:52:00,
2013-08-19 02:02:00,65.0,64.0,-100.00,SSW,208,2.0,5.0,98,0.07,,,0.21,0.000000,,2013-08-19 06:02:00,
2013-08-19 02:42:00,64.0,64.0,-100.00,SE,129,1.0,4.0,99,0.04,,,0.24,0.000000,,2013-08-19 06:42:00,
2013-08-19 02:52:00,64.0,64.0,-100.00,SE,129,1.0,4.0,99,0.04,,,0.24,0.000000,,2013-08-19 06:52:00,
2013-08-19 03:01:00,64.0,64.0,-100.00,SE,129,1.0,4.0,99,0.04,,,0.24,0.000000,,2013-08-19 07:01:00,
2013-08-19 03:42:00,64.0,64.0,-100.00,WSW,238,2.0,2.0,99,0.10,,,0.34,0.000000,,2013-08-19 07:42:00,
2013-08-19 03:52:00,64.0,64.0,-100.00,WSW,238,2.0,2.0,99,0.10,,,0.34,0.000000,,2013-08-19 07:52:00,
2013-08-19 04:02:00,64.0,64.0,-100.00,WSW,238,2.0,2.0,99,0.10,,,0.34,0.000000,,2013-08-19 08:02:00,
2013-08-19 04:42:00,64.0,64.0,-100.00,ENE,58,2.0,3.0,99,0.17,,,0.51,0.000000,,2013-08-19 08:42:00,
2013-08-19 04:52:00,64.0,64.0,-100.00,ENE,58,2.0,3.0,99,0.17,,,0.51,0.000000,,2013-08-19 08:52:00,
2013-08-19 05:01:00,64.0,64.0,-100.00,ENE,58,2.0,3.0,99,0.17,,,0.51,0.000000,,2013-08-19 09:01:00,
2013-08-19 05:43:00,63.0,63.0,-100.00,NE,52,1.0,4.0,99,0.13,,,0.64,0.000000,,2013-08-19 09:43:00,
2013-08-19 05:53:00,63.0,63.0,-100.00,NE,52,1.0,4.0,99,0.13,,,0.64,0.000000,,2013-08-19 09:53:00,
2013-08-19 06:03:00,63.0,63.0,-100.00,NE,52,1.0,4.0,99,0.13,,,0.64,0.000000,,2013-08-19 10:03:00,
2013-08-19 06:43:00,63.0,63.0,-100.00,SW,226,1.0,3.0,99,0.10,,,0.74,0.000000,,2013-08-19 10:43:00,
2013-08-19 06:52:00,63.0,63.0,-100.00,SW,226,1.0,3.0,99,0.10,,,0.74,0.000000,,2013-08-19 10:52:00,
2013-08-19 07:02:00,63.0,63.0,-100.00,SW,226,1.0,3.0,99,0.10,,,0.74,0.000000,,2013-08-19 11:02:00,
2013-08-19 07:45:00,63.0,63.0,-100.00,SW,226,2.0,4.0,99,0.11,,,0.84,0.000000,,2013-08-19 11:45:00,
2013-08-19 07:52:00,63.0,63.0,-100.00,SW,226,2.0,4.0,99,0.11,,,0.84,0.000000,,2013-08-19 11:52:00,
2013-08-19 08:02:00,63.0,63.0,-100.00,SW,226,2.0,4.0,99,0.11,,,0.84,0.000000,,2013-08-19 12:02:00,
2013-08-19 08:42:00,64.0,64.0,-100.00,WSW,251,2.0,3.0,99,0.01,,,0.82,0.000000,,2013-08-19 12:42:00,
2013-08-19 08:52:00,64.0,64.0,-100.00,WSW,251,2.0,3.0,99,0.01,,,0.82,0.000000,,2013-08-19 12:52:00,
2013-08-19 09:03:00,64.0,64.0,-100.00,WSW,251,2.0,3.0,99,0.01,,,0.82,0.000000,,2013-08-19 13:03:00,
2013-08-19 09:42:00,66.0,66.0,-100.00,South,174,1.0,3.0,99,0.00,,,0.80,0.000000,,2013-08-19 13:42:00,
2013-08-19 09:52:00,66.0,66.0,-100.00,South,174,1.0,3.0,99,0.00,,,0.80,0.000000,,2013-08-19 13:52:00,
2013-08-19 10:02:00,66.0,66.0,-100.00,South,174,1.0,3.0,99,0.00,,,0.80,0.000000,,2013-08-19 14:02:00,
2013-08-19 10:42:00,68.0,66.0,-100.00,ENE,71,3.0,5.0,94,0.00,,,0.80,0.000000,,2013-08-19 14:42:00,
2013-08-19 10:52:00,68.0,66.0,-100.00,ENE,71,3.0,5.0,94,0.00,,,0.80,0.000000,,2013-08-19 14:52:00,
2013-08-19 11:01:00,68.0,66.0,-100.00,ENE,71,3.0,5.0,94,0.00,,,0.80,0.000000,,2013-08-19 15:01:00,
2013-08-19 11:05:00,70.0,66.0,-100.00,ESE,109,2.0,5.0,87,0.00,,,0.80,0.000000,,2013-08-19 15:05:00,
2013-08-19 11:44:00,70.0,66.0,-100.00,ESE,109,2.0,5.0,87,0.00,,,0.80,0.000000,,2013-08-19 15:44:00,
2013-08-19 11:54:00,70.0,66.0,-100.00,ESE,109,2.0,5.0,87,0.00,,,0.80,0.000000,,2013-08-19 15:54:00,
2013-08-19 12:47:00,72.0,67.0,-100.00,SSE,148,3.0,4.0,84,0.00,,,0.80,0.000000,,2013-08-19 16:47:00,
2013-08-19 13:04:00,72.0,67.0,-100.00,SSE,148,3.0,4.0,84,0.00,,,0.80,0.000000,,2013-08-19 17:04:00,
2013-08-19 13:05:00,75.0,67.0,-100.00,NNE,29,3.0,6.0,77,0.00,,,0.79,4.000000,,2013-08-19 17:05:00,
2013-08-19 13:49:00,75.0,67.0,-100.00,NNE,29,3.0,6.0,77,0.00,,,0.79,4.000000,,2013-08-19 17:49:00,
2013-08-19 13:57:00,75.0,67.0,-100.00,NNE,29,3.0,6.0,77,0.00,,,0.79,4.000000,,2013-08-19 17:57:00,
2013-08-19 14:05:00,72.0,67.0,-100.00,NNW,346,3.0,5.0,85,0.01,,,0.80,0.000000,,2013-08-19 18:05:00,
2013-08-19 14:50:00,-999.0,-99.9,-100.00,NNW,346,3.0,5.0,85,0.01,,,0.80,0.000000,,2013-08-19 18:50:00,
2013-08-19 15:00:00,-999.0,-99.9,-100.00,NNW,346,3.0,5.0,85,0.01,,,0.80,0.000000,,2013-08-19 19:00:00,
2013-08-19 15:05:00,77.0,69.0,-100.00,SE,134,3.0,7.0,76,0.00,,,0.80,2.000000,,2013-08-19 19:05:00,
2013-08-19 15:30:00,-999.0,-99.9,-100.00,SE,134,3.0,7.0,76,0.00,,,0.80,2.000000,,2013-08-19 19:30:00,
2013-08-19 15:50:00,77.0,69.0,-100.00,SE,134,3.0,7.0,76,0.00,,,0.80,2.000000,,2013-08-19 19:50:00,
2013-08-19 15:59:00,77.0,69.0,-100.00,SE,134,3.0,7.0,76,0.00,,,0.80,2.000000,,2013-08-19 19:59:00,
2013-08-19 16:05:00,73.0,68.0,-100.00,North,353,3.0,7.0,85,0.04,,,0.84,0.000000,,2013-08-19 20:05:00,
2013-08-19 16:50:00,73.0,68.0,-100.00,North,353,3.0,7.0,85,0.04,,,0.84,0.000000,,2013-08-19 20:50:00,
2013-08-19 17:00:00,-999.0,-99.9,-100.00,North,353,3.0,7.0,-999,-99.99,,,-99.99,0.000000,,2013-08-19 21:00:00,
2013-08-19 17:05:00,75.0,72.0,-100.00,SW,215,2.0,4.0,89,0.02,,,0.86,0.000000,,2013-08-19 21:05:00,
2013-08-19 17:46:00,75.0,72.0,-100.00,SW,215,2.0,4.0,89,0.02,,,0.86,0.000000,,2013-08-19 21:46:00,
2013-08-19 17:55:00,75.0,72.0,-100.00,SW,215,2.0,4.0,89,0.02,,,0.86,0.000000,,2013-08-19 21:55:00,
2013-08-19 18:05:00,74.0,70.0,-100.00,SSE,147,2.0,4.0,88,0.00,,,0.86,0.000000,,2013-08-19 22:05:00,
2013-08-19 18:44:00,74.0,70.0,-100.00,SSE,147,2.0,4.0,88,0.00,,,0.86,0.000000,,2013-08-19 22:44:00,
2013-08-19 18:55:00,74.0,70.0,-100.00,SSE,147,2.0,4.0,88,0.00,,,0.86,0.000000,,2013-08-19 22:55:00,
2013-08-19 19:48:00,70.0,67.0,-100.00,NNE,23,2.0,7.0,90,0.00,,,0.86,0.000000,,2013-08-19 23:48:00,
2013-08-19 19:55:00,70.0,67.0,-100.00,NNE,23,2.0,7.0,90,0.00,,,0.86,0.000000,,2013-08-19 23:55:00,
2013-08-19 20:02:00,70.0,67.0,-100.00,NNE,23,2.0,7.0,90,0.00,,,0.86,0.000000,,2013-08-20 00:02:00,
2013-08-19 20:42:00,69.0,67.0,-100.00,South,182,1.0,5.0,92,0.00,,,0.86,0.000000,,2013-08-20 00:42:00,
2013-08-19 20:53:00,69.0,67.0,-100.00,South,182,1.0,5.0,92,0.00,,,0.86,0.000000,,2013-08-20 00:53:00,
2013-08-19 21:03:00,69.0,67.0,-100.00,South,182,1.0,5.0,92,0.00,,,0.86,0.000000,,2013-08-20 01:03:00,
2013-08-19 21:42:00,68.0,66.0,-100.00,SW,226,2.0,6.0,94,0.00,,,0.86,0.000000,,2013-08-20 01:42:00,
2013-08-19 21:52:00,68.0,66.0,-100.00,SW,226,2.0,6.0,94,0.00,,,0.86,0.000000,,2013-08-20 01:52:00,
2013-08-19 22:02:00,68.0,66.0,-100.00,SW,226,2.0,6.0,94,0.00,,,0.86,0.000000,,2013-08-20 02:02:00,
2013-08-19 22:42:00,67.0,65.0,-100.00,SE,137,1.0,6.0,94,0.00,,,0.84,0.000000,,2013-08-20 02:42:00,
2013-08-19 22:52:00,67.0,65.0,-100.00,SE,137,1.0,6.0,94,0.00,,,0.84,0.000000,,2013-08-20 02:52:00,
2013-08-19 23:02:00,67.0,65.0,-100.00,SE,137,1.0,6.0,94,0.00,,,0.84,0.000000,,2013-08-20 03:02:00,
2013-08-19 23:43:00,66.0,65.0,-100.00,ESE,108,1.0,2.0,97,0.00,,,0.81,0.000000,,2013-08-20 03:43:00,
2013-08-19 23:54:00,66.0,65.0,-100.00,ESE,108,1.0,2.0,97,0.00,,,0.81,0.000000,,2013-08-20 03:54:00,